Location: Alvediston
(51.0078°N, 2.0364°W)
Time: 07:51:48
(UTC+00:00)

CZ-2C R/B - Pass Details

Date: 27 February 2020
Orbit: 641 x 704 km, 98.4° (Epoch: 31 March)

Event Time Altitude Azimuth Distance (km) Brightness Sun altitude
Rises 19:39:53 0° 19° (NNE) 3,043 7.0 -18.8°
Reaches altitude 10° 19:42:12 10° 25° (NNE) 2,133 6.2 -19.2°
Maximum altitude 19:46:42 46° 100° (E) 921 3.9 -19.9°
Drops below altitude 10° 19:51:14 10° 174° (S) 2,150 6.1 -20.6°
Sets 19:53:34 0° 180° (S) 3,069 7.0 -20.9°
